This demonstration page uses our WeatherBlox Daily Observations layout. Learn more.

Left ArrowRight Arrow

31.84235, -102.49876

Hourly Observations for August 22, 2017

Temp ( °F °C ) Dew Point ( °F °C ) Humidity (%) Winds ( mph kmh ) Pressure ( in mb ) Visibility ( mi km ) Precip ( " mm )
12:53 am 00:53 Clear 80 26.7 59 15 49 49 S 9 15 29.98 1015 10 16 0.00 0.00
1:53 am 01:53 Clear 78 25.6 59 15 52 52 S 8 13 29.98 1015 10 16 0.00 0.00
2:53 am 02:53 Clear 77 25 60 15.6 56 56 SSE 9 15 29.97 1015 10 16 0.00 0.00
3:53 am 03:53 Clear 75 23.9 60 15.6 60 60 SSE 8 13 29.98 1015 10 16 0.00 0.00
4:53 am 04:53 Clear 75 23.9 61 16.1 62 62 S 9 15 29.97 1015 10 16 0.00 0.00
5:53 am 05:53 Clear 75 23.9 62 16.7 64 64 S 8 13 29.96 1015 10 16 0.00 0.00
6:53 am 06:53 Clear 73 22.8 62 16.7 69 69 S 5 7 29.98 1015 10 16 0.00 0.00
7:53 am 07:53 Sunny 73 22.8 63 17.2 71 71 S 6 9 29.99 1016 10 16 0.00 0.00
8:53 am 08:53 Sunny 77 25 64 17.8 64 64 SSW 8 13 29.99 1016 10 16 0.00 0.00
9:53 am 09:53 Sunny 80 26.7 64 17.8 58 58 SSW 10 17 30.00 1016 10 16 0.00 0.00
10:53 am 10:53 Sunny 82 27.8 64 17.8 55 55 SSW 9 15 30.00 1016 10 16 0.00 0.00
11:53 am 11:53 Sunny 86 30 63 17.2 46 46 SW 3 6 30.01 1016 10 16 0.00 0.00
12:53 pm 12:53 Sunny 90 32.2 63 17.2 41 41 VRB 5 7 30.00 1016 10 16 0.00 0.00
1:53 pm 13:53 Sunny 92 33.3 62 16.7 37 37 Calm 29.98 1015 10 16 0.00 0.00
2:53 pm 14:53 Sunny 94 34.4 60 15.6 32 32 VRB 7 11 29.95 1014 10 16 0.00 0.00
3:53 pm 15:53 Sunny with Nearby Thunderstorms 95 35 59 15 30 30 ESE 14 22 29.93 1013 10 16 0.00 0.00
4:10 pm 16:10 Sunny with Thunderstorms 93 33.9 60 15.6 33 33 SSE 12 19 29.85 1011 10 16 0.00 0.00
4:53 pm 16:53 Mostly Cloudy with Thunderstorms 84 28.9 65 18.3 53 53 W 12 19 29.94 1014 5 8 0.02 0.51
5:23 pm 17:23 Mostly Cloudy with Nearby Thunderstorms 81 27.2 64 17.8 57 57 WSW 12 19 29.91 1013 10 16 0.00 0.03
5:31 pm 17:31 Partly Cloudy 82 27.8 64 17.8 55 55 WSW 7 11 29.88 1012 10 16 0.00 0.03
5:53 pm 17:53 Sunny 87 30.6 63 17.2 45 45 SW 3 6 29.91 1013 10 16 0.00 0.03
6:53 pm 18:53 Sunny 89 31.7 65 18.3 45 45 NE 3 6 29.90 1013 10 16 0.00 0.00
7:53 pm 19:53 Sunny 89 31.7 62 16.7 41 41 SE 9 15 29.91 1013 10 16 0.00 0.00
8:53 pm 20:53 Partly Cloudy 86 30 61 16.1 43 43 SE 9 15 29.92 1013 10 16 0.00 0.00
9:51 pm 21:51 Mostly Cloudy with Thunderstorms 81 27 66 19 62 62 ESE 12 19 29.91 1013 8 13 0.03 0.76
9:52 pm 21:52 Mostly Cloudy with Thunderstorms 81 27.2 67 19.4 62 62 ESE 12 19 29.96 1014 7 11 0.03 0.76
10:24 pm 22:24 Cloudy with Strong Thunderstorms 70 21.1 68 20 93 93 ENE 21 33 30.03 1017 3 4 0.01 0.25
10:36 pm 22:36 Windy with Storms Likely 70 21.1 67 19.4 90 90 ENE 24 39 30.00 1016 6 10 0.01 0.25
10:44 pm 22:44 Cloudy with Nearby Thunderstorms 70 21.1 68 20 93 93 E 22 35 30.00 1016 10 16 0.01 0.25
10:53 pm 22:53 Mostly Cloudy with Nearby Thunderstorms 70 21.1 68 20 93 93 E 21 33 30.03 1017 10 16 0.01 0.25
11:33 pm 23:33 Mostly Cloudy with Thunderstorms 71 21.7 68 20 90 90 WSW 14 22 30.06 1018 10 16 0.00 0.00
11:53 pm 23:53 Cloudy with Thunderstorms 72 22.2 67 19.4 84 84 E 13 20 30.04 1017 9 14 0.00 0.00

Powered by AerisWeather